• In Hungary
  • List of Countries
  • For 7 days
  • Water Temperature
  • Satellite Maps
  • Weather Map
  • News
  • Weather Widgets
  • user-avatar
    Login

    Hourly Weather Kuzhuntay

    Today, 14 August, Tuesday

    Time Temperature Precipitation Wind Pressure Humidity
    00:00 +23°C° 0.2 mm 2 mps 747 mmHg 72%
    01:00 +21°C° 0.2 mm 2 mps 747 mmHg 73%
    02:00 +21°C° 0 mm 2 mps 747 mmHg 74%
    03:00 +21°C° 0 mm 2 mps 747 mmHg 74%
    04:00 +21°C° 0 mm 2 mps 747 mmHg 76%
    05:00 +21°C° 0.2 mm 2 mps 747 mmHg 74%
    06:00 +23°C° 0.2 mm 2 mps 747 mmHg 71%
    07:00 +23°C° 0.2 mm 2 mps 747 mmHg 68%
    08:00 +24°C° 0.3 mm 2 mps 747 mmHg 62%
    09:00 +25°C° 0.3 mm 2 mps 747 mmHg 56%
    10:00 +26°C° 0.3 mm 2 mps 747 mmHg 50%
    11:00 +27°C° 0.1 mm 2 mps 746 mmHg 45%
    12:00 +28°C° 0.1 mm 3 mps 746 mmHg 41%
    13:00 +29°C° 0.1 mm 3 mps 746 mmHg 36%
    14:00 +29°C° 0 mm 3 mps 745 mmHg 36%
    15:00 +30°C° 0 mm 4 mps 745 mmHg 35%
    16:00 +30°C° 0 mm 4 mps 745 mmHg 34%
    17:00 +29°C° 0.1 mm 4 mps 745 mmHg 36%
    18:00 +29°C° 0.1 mm 3 mps 745 mmHg 39%
    19:00 +28°C° 0.1 mm 3 mps 745 mmHg 41%
    20:00 +26°C° 0.7 mm 3 mps 745 mmHg 50%
    21:00 +25°C° 0.7 mm 3 mps 746 mmHg 59%
    22:00 +22°C° 0.7 mm 3 mps 746 mmHg 68%
    23:00 +21°C° 0.3 mm 4 mps 746 mmHg 72%

    Tomorrow, 15 August, Wednesday

    Time Temperature Precipitation Wind Pressure Humidity
    00:00 +21°C° 0.3 mm 4 mps 746 mmHg 76%
    01:00 +20°C° 0.3 mm 5 mps 747 mmHg 80%
    02:00 +19°C° 0 mm 5 mps 747 mmHg 81%
    03:00 +17°C° 0 mm 5 mps 747 mmHg 81%
    04:00 +17°C° 0 mm 5 mps 748 mmHg 81%
    05:00 +17°C° 0 mm 5 mps 748 mmHg 77%
    06:00 +17°C° 0 mm 5 mps 749 mmHg 72%
    07:00 +17°C° 0 mm 5 mps 749 mmHg 67%
    08:00 +20°C° 0 mm 5 mps 749 mmHg 61%
    09:00 +21°C° 0 mm 5 mps 750 mmHg 55%
    10:00 +23°C° 0 mm 5 mps 750 mmHg 50%
    11:00 +25°C° 0 mm 5 mps 750 mmHg 45%
    12:00 +26°C° 0 mm 5 mps 750 mmHg 40%
    13:00 +27°C° 0 mm 5 mps 750 mmHg 36%
    14:00 +27°C° 0 mm 5 mps 750 mmHg 35%
    15:00 +27°C° 0 mm 5 mps 750 mmHg 34%
    16:00 +27°C° 0 mm 5 mps 750 mmHg 33%
    17:00 +27°C° 0 mm 5 mps 751 mmHg 37%
    18:00 +26°C° 0 mm 4 mps 751 mmHg 40%
    19:00 +25°C° 0 mm 3 mps 751 mmHg 44%
    20:00 +22°C° 0 mm 3 mps 751 mmHg 48%
    21:00 +21°C° 0 mm 2 mps 752 mmHg 51%
    22:00 +20°C° 0 mm 2 mps 752 mmHg 55%
    23:00 +20°C° 0 mm 2 mps 752 mmHg 58%

    Day after tomorrow, 16 August, Thursday

    Time Temperature Precipitation Wind Pressure Humidity
    00:00 +20°C° 0 mm 1 mps 752 mmHg 60%
    01:00 +19°C° 0 mm 1 mps 752 mmHg 63%
    02:00 +19°C° 0 mm 1 mps 752 mmHg 65%
    03:00 +18°C° 0 mm 1 mps 752 mmHg 67%
    04:00 +18°C° 0 mm 1 mps 753 mmHg 69%
    05:00 +19°C° 0 mm 1 mps 753 mmHg 66%
    06:00 +20°C° 0 mm 1 mps 753 mmHg 64%
    07:00 +21°C° 0 mm 1 mps 753 mmHg 61%
    08:00 +22°C° 0 mm 1 mps 753 mmHg 55%
    09:00 +23°C° 0 mm 1 mps 753 mmHg 50%
    10:00 +25°C° 0 mm 1 mps 753 mmHg 45%
    11:00 +26°C° 0 mm 2 mps 753 mmHg 40%
    12:00 +27°C° 0 mm 2 mps 753 mmHg 36%
    13:00 +28°C° 0 mm 2 mps 753 mmHg 32%
    14:00 +28°C° 0 mm 2 mps 752 mmHg 30%
    15:00 +29°C° 0 mm 2 mps 752 mmHg 29%
    16:00 +29°C° 0 mm 2 mps 752 mmHg 27%
    17:00 +28°C° 0 mm 2 mps 752 mmHg 31%
    18:00 +28°C° 0 mm 1 mps 752 mmHg 34%
    19:00 +27°C° 0 mm 1 mps 751 mmHg 38%
    20:00 +26°C° 0 mm 1 mps 751 mmHg 39%
    21:00 +24°C° 0 mm 1 mps 751 mmHg 40%
    22:00 +23°C° 0 mm 1 mps 751 mmHg 41%
    23:00 +23°C° 0 mm 1 mps 751 mmHg 40%

    17 August, Friday

    Time Temperature Precipitation Wind Pressure Humidity
    00:00 +23°C° 0 mm 2 mps 751 mmHg 40%
    01:00 +23°C° 0 mm 2 mps 751 mmHg 39%
    02:00 +21°C° 0 mm 2 mps 751 mmHg 40%
    03:00 +21°C° 0 mm 2 mps 751 mmHg 40%
    04:00 +21°C° 0 mm 3 mps 750 mmHg 40%
    05:00 +21°C° 0 mm 3 mps 750 mmHg 40%
    06:00 +22°C° 0 mm 3 mps 750 mmHg 39%
    07:00 +24°C° 0 mm 3 mps 750 mmHg 38%
    08:00 +26°C° 0 mm 3 mps 750 mmHg 34%
    09:00 +28°C° 0 mm 3 mps 750 mmHg 29%
    10:00 +30°C° 0 mm 4 mps 750 mmHg 24%
    11:00 +32°C° 0 mm 4 mps 750 mmHg 23%
    12:00 +33°C° 0 mm 4 mps 749 mmHg 22%
    13:00 +34°C° 0 mm 5 mps 749 mmHg 21%
    14:00 +34°C° 0 mm 5 mps 748 mmHg 21%
    15:00 +34°C° 0 mm 5 mps 748 mmHg 21%
    16:00 +34°C° 0 mm 5 mps 748 mmHg 21%
    17:00 +33°C° 0 mm 4 mps 747 mmHg 24%
    18:00 +31°C° 0 mm 3 mps 747 mmHg 28%
    19:00 +29°C° 0 mm 2 mps 747 mmHg 31%
    20:00 +28°C° 0 mm 3 mps 747 mmHg 39%
    21:00 +26°C° 0 mm 4 mps 747 mmHg 46%
    22:00 +25°C° 0 mm 4 mps 747 mmHg 54%
    23:00 +23°C° 0 mm 4 mps 747 mmHg 60%

    18 August, Saturday

    Time Temperature Precipitation Wind Pressure Humidity
    00:00 +22°C° 0 mm 4 mps 747 mmHg 66%
    01:00 +22°C° 0 mm 4 mps 747 mmHg 71%
    02:00 +21°C° 0.1 mm 5 mps 747 mmHg 74%
    03:00 +20°C° 0.1 mm 5 mps 746 mmHg 76%
    04:00 +20°C° 0.1 mm 5 mps 746 mmHg 78%
    05:00 +19°C° 0.3 mm 5 mps 747 mmHg 78%
    06:00 +19°C° 0.3 mm 5 mps 747 mmHg 77%
    07:00 +19°C° 0.3 mm 5 mps 747 mmHg 77%
    08:00 +20°C° 0.1 mm 5 mps 747 mmHg 70%
    09:00 +21°C° 0.1 mm 5 mps 747 mmHg 63%
    10:00 +22°C° 0.1 mm 6 mps 747 mmHg 56%
    11:00 +23°C° 0 mm 6 mps 747 mmHg 52%
    12:00 +25°C° 0 mm 5 mps 747 mmHg 47%
    13:00 +26°C° 0 mm 5 mps 747 mmHg 42%
    14:00 +26°C° 0 mm 5 mps 747 mmHg 41%
    15:00 +26°C° 0 mm 5 mps 746 mmHg 41%
    16:00 +26°C° 0 mm 5 mps 746 mmHg 40%
    17:00 +25°C° 0 mm 5 mps 746 mmHg 44%
    18:00 +23°C° 0 mm 5 mps 746 mmHg 48%
    19:00 +22°C° 0 mm 5 mps 746 mmHg 51%
    20:00 +21°C° 0 mm 6 mps 747 mmHg 57%
    21:00 +20°C° 0 mm 6 mps 747 mmHg 62%
    22:00 +17°C° 0 mm 6 mps 747 mmHg 67%
    23:00 +17°C° 0 mm 6 mps 747 mmHg 70%

    19 August, Sunday

    Time Temperature Precipitation Wind Pressure Humidity
    00:00 +16°C° 0 mm 5 mps 747 mmHg 72%
    01:00 +16°C° 0 mm 5 mps 747 mmHg 74%
    02:00 +16°C° 0.1 mm 5 mps 747 mmHg 75%
    03:00 +15°C° 0.1 mm 4 mps 747 mmHg 77%
    04:00 +15°C° 0.1 mm 4 mps 747 mmHg 78%
    05:00 +15°C° 0 mm 5 mps 747 mmHg 76%
    06:00 +16°C° 0 mm 6 mps 747 mmHg 74%
    07:00 +16°C° 0 mm 6 mps 747 mmHg 72%
    08:00 +17°C° 0 mm 7 mps 747 mmHg 65%
    09:00 +20°C° 0 mm 7 mps 747 mmHg 58%
    10:00 +21°C° 0 mm 7 mps 747 mmHg 52%
    11:00 +22°C° 0 mm 7 mps 747 mmHg 48%
    12:00 +23°C° 0 mm 7 mps 747 mmHg 45%
    13:00 +24°C° 0 mm 7 mps 747 mmHg 41%
    14:00 +24°C° 0 mm 7 mps 747 mmHg 41%
    15:00 +24°C° 0 mm 7 mps 747 mmHg 41%
    16:00 +24°C° 0 mm 7 mps 747 mmHg 41%
    17:00 +23°C° 0 mm 6 mps 747 mmHg 43%
    18:00 +22°C° 0 mm 6 mps 748 mmHg 45%
    19:00 +22°C° 0 mm 5 mps 748 mmHg 47%
    20:00 +20°C° 0 mm 5 mps 748 mmHg 51%
    21:00 +19°C° 0 mm 6 mps 748 mmHg 55%
    22:00 +17°C° 0 mm 6 mps 748 mmHg 60%
    23:00 +17°C° 0 mm 5 mps 748 mmHg 62%
    Show more